Jewel Of The Seas — C6FW9 — position and weather

sailwx.info

Track history (hours):
 
Tides and Currents Weather Stations Pressure Air Temp Water Temp Dewpoint Dewpoint Depression Visibility Wind Speed Wind Dir Waves Ship Positions

Jewel Of The Seas

Operator: Royal Caribbean Cruises Ltd

Last reported at 2020-Jan-17 04:06 UTC. Time now 2020-Jan-18 20:28 UTC.
Position N 25°41' E 055°14'.

Length 290 m; draft 8.6 m.

Type: Ship. MMSI: 311583000.

Date/timePositionNaut miles runAvg speedWind from/ knotsBaromVisibWave heightAir tempDewpointWater temp
2020-Jan-17 04:06N 25°41' E 055°14'313.2
2020-Jan-17 03:54N 25°40' E 055°12'2014.4
2020-Jan-17 02:30N 25°34' E 054°50'122 4.8
2020-Jan-16 01:00N 24°42' E 052°48'66 9.4 360 / 151026.610.8
2020-Jan-15 18:00N 24°48' E 054°00'20 1.1 050 / 251027.6 19.9 6.021.2
2020-Jan-14 23:00N 25°00' E 054°18'40 6.7 310 / 161020.610.8 19.0 23.0
2020-Jan-14 17:00N 25°30' E 054°48'411.7 270 / 401017.6 17.911.123.2
2020-Jan-14 16:37N 25°28' E 054°52'12 7.7
2020-Jan-14 15:00N 25°18' E 055°01'4 7.2
2020-Jan-14 14:30N 25°18' E 055°05'7 7.2
2020-Jan-14 13:30N 25°18' E 055°13'4 2.7
2020-Jan-14 12:00N 25°17' E 055°17'0 0.0
2020-Jan-14 11:24N 25°17' E 055°17'0 0.0
2020-Jan-14 10:57N 25°17' E 055°17'0 0.0
2020-Jan-14 09:51N 25°17' E 055°17'0 0.0
2020-Jan-14 07:27N 25°17' E 055°17'0 0.0
2020-Jan-14 06:00N 25°17' E 055°17'0 0.0
2020-Jan-14 05:27N 25°17' E 055°17'0 0.0
2020-Jan-14 00:57N 25°17' E 055°17'0 0.0
2020-Jan-13 20:30N 25°17' E 055°17'0 0.0
2020-Jan-13 18:00N 25°17' E 055°17'0 0.0
2020-Jan-13 17:00N 25°17' E 055°17'0 0.0
2020-Jan-13 12:00N 25°17' E 055°17'0 0.0
2020-Jan-13 10:57N 25°17' E 055°17'0 0.0
2020-Jan-13 08:00N 25°17' E 055°17'0 0.0
2020-Jan-13 06:27N 25°17' E 055°17'0 0.0
2020-Jan-13 05:00N 25°17' E 055°17'0 0.0
2020-Jan-13 04:30N 25°17' E 055°17'0 0.0
2020-Jan-13 03:54N 25°17' E 055°17'0 0.0
2020-Jan-13 03:27N 25°17' E 055°17'0 0.0
2020-Jan-13 01:57N 25°17' E 055°17'0 0.0
2020-Jan-13 01:30N 25°17' E 055°17'0 0.0
2020-Jan-13 00:30N 25°17' E 055°17'0 0.0
2020-Jan-12 20:30N 25°17' E 055°17'0 0.0
2020-Jan-12 18:30N 25°17' E 055°17'0 0.0
2020-Jan-12 17:27N 25°17' E 055°17'0 0.0
2020-Jan-12 16:30N 25°17' E 055°17'0 0.0
2020-Jan-12 15:54N 25°17' E 055°17'0 0.0
2020-Jan-12 15:27N 25°17' E 055°17'0 0.0
2020-Jan-12 12:30N 25°17' E 055°17'0 0.0
2020-Jan-12 11:30N 25°17' E 055°17'0 0.0
2020-Jan-12 10:30N 25°17' E 055°17'0 0.1
2020-Jan-12 09:00N 25°16' E 055°17'0 0.0
2020-Jan-12 08:30N 25°16' E 055°17'0 0.0
2020-Jan-12 07:00N 25°16' E 055°17'3 0.8
2020-Jan-12 03:00N 25°18' E 055°14'14 7.1
2020-Jan-12 01:00N 25°17' E 054°58'8 7.2
2020-Jan-11 23:57N 25°16' E 054°50'  
2020-Jan-07 21:00N 26°12' E 051°30'   360 / 81021.610.8 20.310.222.5
Track history (hours):
 
Tides and Currents Weather Stations Pressure Air Temp Water Temp Dewpoint Dewpoint Depression Visibility Wind Speed Wind Dir Waves Ship Positions

Jewel Of The Seas

Operator: Royal Caribbean Cruises Ltd

Last reported at 2020-Jan-17 04:06 UTC. Time now 2020-Jan-18 20:28 UTC.
Position N 25°41' E 055°14'.

Length 290 m; draft 8.6 m.

Type: Ship. MMSI: 311583000.

Date/timePositionNaut miles runAvg speedWind from/ knotsBaromVisibWave heightAir tempDewpointWater temp
2020-Jan-17 04:06N 25°41' E 055°14'313.2
2020-Jan-17 03:54N 25°40' E 055°12'2014.4
2020-Jan-17 02:30N 25°34' E 054°50'122 4.8
2020-Jan-16 01:00N 24°42' E 052°48'66 9.4 360 / 151026.610.8
2020-Jan-15 18:00N 24°48' E 054°00'20 1.1 050 / 251027.6 19.9 6.021.2
2020-Jan-14 23:00N 25°00' E 054°18'40 6.7 310 / 161020.610.8 19.0 23.0
2020-Jan-14 17:00N 25°30' E 054°48'411.7 270 / 401017.6 17.911.123.2
2020-Jan-14 16:37N 25°28' E 054°52'12 7.7
2020-Jan-14 15:00N 25°18' E 055°01'4 7.2
2020-Jan-14 14:30N 25°18' E 055°05'7 7.2
2020-Jan-14 13:30N 25°18' E 055°13'4 2.7
2020-Jan-14 12:00N 25°17' E 055°17'0 0.0
2020-Jan-14 11:24N 25°17' E 055°17'0 0.0
2020-Jan-14 10:57N 25°17' E 055°17'0 0.0
2020-Jan-14 09:51N 25°17' E 055°17'0 0.0
2020-Jan-14 07:27N 25°17' E 055°17'0 0.0
2020-Jan-14 06:00N 25°17' E 055°17'0 0.0
2020-Jan-14 05:27N 25°17' E 055°17'0 0.0
2020-Jan-14 00:57N 25°17' E 055°17'0 0.0
2020-Jan-13 20:30N 25°17' E 055°17'0 0.0
2020-Jan-13 18:00N 25°17' E 055°17'0 0.0
2020-Jan-13 17:00N 25°17' E 055°17'0 0.0
2020-Jan-13 12:00N 25°17' E 055°17'0 0.0
2020-Jan-13 10:57N 25°17' E 055°17'0 0.0
2020-Jan-13 08:00N 25°17' E 055°17'0 0.0
2020-Jan-13 06:27N 25°17' E 055°17'0 0.0
2020-Jan-13 05:00N 25°17' E 055°17'0 0.0
2020-Jan-13 04:30N 25°17' E 055°17'0 0.0
2020-Jan-13 03:54N 25°17' E 055°17'0 0.0
2020-Jan-13 03:27N 25°17' E 055°17'0 0.0
2020-Jan-13 01:57N 25°17' E 055°17'0 0.0
2020-Jan-13 01:30N 25°17' E 055°17'0 0.0
2020-Jan-13 00:30N 25°17' E 055°17'0 0.0
2020-Jan-12 20:30N 25°17' E 055°17'0 0.0
2020-Jan-12 18:30N 25°17' E 055°17'0 0.0
2020-Jan-12 17:27N 25°17' E 055°17'0 0.0
2020-Jan-12 16:30N 25°17' E 055°17'0 0.0
2020-Jan-12 15:54N 25°17' E 055°17'0 0.0
2020-Jan-12 15:27N 25°17' E 055°17'0 0.0
2020-Jan-12 12:30N 25°17' E 055°17'0 0.0
2020-Jan-12 11:30N 25°17' E 055°17'0 0.0
2020-Jan-12 10:30N 25°17' E 055°17'0 0.1
2020-Jan-12 09:00N 25°16' E 055°17'0 0.0
2020-Jan-12 08:30N 25°16' E 055°17'0 0.0
2020-Jan-12 07:00N 25°16' E 055°17'3 0.8
2020-Jan-12 03:00N 25°18' E 055°14'14 7.1
2020-Jan-12 01:00N 25°17' E 054°58'8 7.2
2020-Jan-11 23:57N 25°16' E 054°50'  
2020-Jan-07 21:00N 26°12' E 051°30'   360 / 81021.610.8 20.310.222.5

Dump ship's entire track history